Time,TemperatureF,DewpointF,PressureIn,WindDirection,WindDirectionDegrees,WindSpeedMPH,WindSpeedGustMPH,Humidity,HourlyPrecipIn,Conditions,Clouds,dailyrainin,SoftwareType,DateUTC
2013-04-12 20:18:00,39.7,39.0,29.65,SE,130,3.1,4.9,97,0.00,,,-99.99,wx200d/1.3,2013-04-13 00:18:00,
2013-04-12 20:20:00,39.7,39.0,29.65,East,87,0.0,0.0,97,0.00,,,-99.99,wx200d/1.3,2013-04-13 00:20:00,
2013-04-12 20:45:00,40.1,41.0,29.65,ENE,75,0.0,0.0,97,0.00,,,-99.99,wx200d/1.3,2013-04-13 00:45:00,
2013-04-12 20:46:00,39.9,39.0,29.65,NE,45,0.0,0.0,97,0.00,,,-99.99,wx200d/1.3,2013-04-13 00:46:00,
2013-04-12 20:48:00,40.1,41.0,29.65,NE,53,0.0,0.0,97,0.00,,,-99.99,wx200d/1.3,2013-04-13 00:48:00,
2013-04-12 20:53:00,39.9,39.0,29.65,NE,44,2.7,0.0,97,0.00,,,-99.99,wx200d/1.3,2013-04-13 00:53:00,
2013-04-12 20:58:00,39.9,39.0,29.65,ENE,72,0.0,0.0,97,0.00,,,-99.99,wx200d/1.3,2013-04-13 00:58:00,
2013-04-12 21:03:00,39.9,39.0,29.65,NNE,29,6.3,6.3,97,0.00,,,-99.99,wx200d/1.3,2013-04-13 01:03:00,
2013-04-12 21:08:00,40.1,41.0,29.65,ENE,66,0.0,0.0,97,0.00,,,-99.99,wx200d/1.3,2013-04-13 01:08:00,
2013-04-12 21:13:00,39.9,39.0,29.65,NE,40,6.3,7.4,97,0.00,,,-99.99,wx200d/1.3,2013-04-13 01:13:00,
2013-04-12 21:18:00,39.9,39.0,29.65,East,88,5.4,5.8,97,0.00,,,-99.99,wx200d/1.3,2013-04-13 01:18:00,
2013-04-12 21:23:00,39.9,39.0,29.65,ENE,57,4.0,4.5,97,0.00,,,-99.99,wx200d/1.3,2013-04-13 01:23:00,
2013-04-12 21:28:00,39.9,39.0,29.65,ENE,78,0.0,0.0,97,0.00,,,-99.99,wx200d/1.3,2013-04-13 01:28:00,
2013-04-12 21:34:00,39.9,39.0,29.65,ENE,75,5.4,5.8,97,0.00,,,-99.99,wx200d/1.3,2013-04-13 01:34:00,
2013-04-12 21:39:00,39.9,39.0,29.65,ENE,57,0.0,0.0,97,0.00,,,-99.99,wx200d/1.3,2013-04-13 01:39:00,
2013-04-12 21:44:00,39.7,39.0,29.65,ESE,121,0.0,0.0,97,0.00,,,-99.99,wx200d/1.3,2013-04-13 01:44:00,
2013-04-12 21:49:00,39.7,39.0,29.65,ENE,67,6.3,0.0,97,0.00,,,-99.99,wx200d/1.3,2013-04-13 01:49:00,
2013-04-12 21:54:00,39.7,39.0,29.65,ESE,117,0.0,0.0,97,0.00,,,-99.99,wx200d/1.3,2013-04-13 01:54:00,
2013-04-12 21:59:00,39.7,39.0,29.65,NE,43,0.0,0.0,97,0.00,,,-99.99,wx200d/1.3,2013-04-13 01:59:00,
2013-04-12 22:04:00,39.9,39.0,29.65,ENE,77,0.0,0.0,97,0.00,,,-99.99,wx200d/1.3,2013-04-13 02:04:00,
2013-04-12 22:09:00,40.1,41.0,29.65,SE,144,0.0,0.0,97,0.00,,,-99.99,wx200d/1.3,2013-04-13 02:09:00,
2013-04-12 22:14:00,40.1,41.0,29.65,East,95,0.0,0.0,97,0.00,,,-99.99,wx200d/1.3,2013-04-13 02:14:00,
2013-04-12 22:19:00,40.3,41.0,29.65,NE,50,5.8,5.8,97,0.00,,,-99.99,wx200d/1.3,2013-04-13 02:19:00,
2013-04-12 22:24:00,40.3,41.0,29.65,NE,46,0.0,0.0,97,0.00,,,-99.99,wx200d/1.3,2013-04-13 02:24:00,
2013-04-12 22:29:00,40.5,41.0,29.65,NE,37,0.0,0.0,97,0.00,,,-99.99,wx200d/1.3,2013-04-13 02:29:00,
2013-04-12 22:34:00,40.5,41.0,29.65,East,93,0.0,9.2,97,0.00,,,-99.99,wx200d/1.3,2013-04-13 02:34:00,
2013-04-12 22:39:00,40.5,41.0,29.62,East,89,0.0,0.0,97,0.00,,,-99.99,wx200d/1.3,2013-04-13 02:39:00,
2013-04-12 22:44:00,40.3,41.0,29.62,ESE,104,4.9,0.0,97,0.00,,,-99.99,wx200d/1.3,2013-04-13 02:44:00,
2013-04-12 22:49:00,40.3,41.0,29.62,ESE,104,7.4,7.4,97,0.00,,,-99.99,wx200d/1.3,2013-04-13 02:49:00,
2013-04-12 22:54:00,40.5,41.0,29.62,ENE,68,0.0,7.8,97,0.00,,,-99.99,wx200d/1.3,2013-04-13 02:54:00,
2013-04-12 22:59:00,40.3,41.0,29.62,ENE,76,2.7,0.0,97,0.00,,,-99.99,wx200d/1.3,2013-04-13 02:59:00,
2013-04-12 23:05:00,39.9,39.0,29.62,East,86,2.7,4.9,97,0.00,,,-99.99,wx200d/1.3,2013-04-13 03:05:00,
2013-04-12 23:10:00,39.9,39.0,29.62,SE,126,0.0,0.0,97,0.00,,,-99.99,wx200d/1.3,2013-04-13 03:10:00,
2013-04-12 23:15:00,39.9,39.0,29.62,SE,129,7.8,0.0,97,0.00,,,-99.99,wx200d/1.3,2013-04-13 03:15:00,
2013-04-12 23:20:00,40.1,41.0,29.59,ENE,62,8.3,0.0,97,0.00,,,-99.99,wx200d/1.3,2013-04-13 03:20:00,
2013-04-12 23:25:00,40.1,41.0,29.59,East,86,0.0,0.0,97,0.00,,,-99.99,wx200d/1.3,2013-04-13 03:25:00,
2013-04-12 23:30:00,40.1,41.0,29.59,SSE,161,4.5,0.0,97,0.00,,,-99.99,wx200d/1.3,2013-04-13 03:30:00,
2013-04-12 23:35:00,39.9,39.0,29.62,East,94,9.2,0.0,97,0.00,,,-99.99,wx200d/1.3,2013-04-13 03:35:00,
2013-04-12 23:40:00,39.9,39.0,29.62,ENE,78,6.9,10.1,97,0.00,,,-99.99,wx200d/1.3,2013-04-13 03:40:00,
2013-04-12 23:45:00,39.9,39.0,29.62,NE,38,7.8,8.3,97,0.00,,,-99.99,wx200d/1.3,2013-04-13 03:45:00,
2013-04-12 23:50:00,39.7,39.0,29.62,ENE,73,2.7,0.0,97,0.00,,,-99.99,wx200d/1.3,2013-04-13 03:50:00,
2013-04-12 23:55:00,39.7,39.0,29.62,East,83,7.8,7.8,97,0.00,,,-99.99,wx200d/1.3,2013-04-13 03:55:00,